Location: Arrodets-la-Barthe
(43.0306°N, 0.2829°E)
Time: 12:52:30
(UTC+00:00)

Cosmos 220 Rocket - Pass Details

Date: 24 October 2021
Orbit: 575 x 615 km, 74.0° (Epoch: 07 December)

Event Time Altitude Azimuth Distance (km) Brightness Sun altitude
Rises 18:29:51 0° 197° (SSW) 2,868 7.7 -16.7°
Reaches altitude 10° 18:32:05 10° 196° (SSW) 1,965 6.8 -17.1°
Maximum altitude 18:36:29 84° 110° (ESE) 619 3.9 -17.9°
Drops below altitude 10° 18:40:54 10° 21° (NNE) 1,965 6.4 -18.7°
Enters shadow 18:41:14 - 21° (NNE) 2,098 6.6 -18.8°
